User: anonymous   Login
Location: Cranbrook Institute of Science
(42.5830°N, 83.2450°W)
Time: 16:46:20
(UTC-04:00)
Language:

ATLAS 5 CENTAUR R/B - Orbit

View from above orbital plane
View from above orbital plane
View from above satellite
View from above satellite

Ground track
Ground track

The orbit data is extracted from the following two-line orbital elements,

1 31702U 07027B   16243.09764715 0.00000000  00000-0  00000-0 0    07
2 31702  63.3597 350.8578 0234000   0.3532 359.6468 14.18506475    08
Epoch (UTC): 30 August 2016 02:20:36
Eccentricity: 0.0234000
inclination: 63.3597°
perigee height: 662 km
apogee height: 999 km
right ascension of ascending node: 350.8578°
argument of perigee: 0.3532°
revolutions per day: 14.18506475
mean anomaly at epoch: 359.6468°
orbit number at epoch: 0

The dashed part of the orbit path shows where the satellite is in the earth's shadow,  

DLR